User: anonymous   Login
Location: Unspecified
(0.0000°N, 0.0000°E)
Time: 21:18:16
(UTC+01:00)
Language:

Cosmos 1295 Rocket - Orbit

View from above orbital plane
View from above orbital plane
View from above satellite
View from above satellite

Ground track
Ground track

The orbit data is extracted from the following two-line orbital elements,

1 12682U 81077B   16341.97276726 +.00000134 +00000-0 +11671-3 0  9990
2 12682 082.9150 159.9024 0034385 161.2879 307.9211 13.78529209776114
Epoch (UTC): 06 December 2016 23:20:47
Eccentricity: 0.0034385
inclination: 82.9150°
perigee height: 944 km
apogee height: 994 km
right ascension of ascending node: 159.9024°
argument of perigee: 161.2879°
revolutions per day: 13.78529209
mean anomaly at epoch: 307.9211°
orbit number at epoch: 77611

The dashed part of the orbit path shows where the satellite is in the earth's shadow,  

DLR